EW1315 Weather Reports


Display with metric or nautical units.
time (UTC)temp
F
wind
direction
speed
MPH
gust
MPH
rain 1hr
in
rain 24hr
in
rain mn
in
humidity
%
barometer
mb
20260502184503 54 57 0.0 2.0 0.00 0.30 0.30 92 1008.3
20260502184213 54 72 0.0 2.0 0.01 0.30 0.30 92 1008.3
20260502183503 54 62 0.0 2.0 0.02 0.30 0.30 92 1008.6
20260502183003 54 84 0.0 2.0 0.03 0.30 0.30 92 1008.4
20260502182503 54 101 0.0 2.0 0.03 0.29 0.29 91 1008.5
20260502182003 54 94 0.0 2.0 0.03 0.29 0.29 91 1008.6
20260502181503 54 86 0.0 2.0 0.04 0.29 0.29 91 1008.6
20260502181003 54 101 1.0 2.0 0.04 0.29 0.29 91 1008.9
20260502180714 54 114 0.0 2.0 0.06 0.29 0.29 91 1009.0
20260502170503 56 59 0.0 2.0 0.22 0.23 0.23 88 1009.8
20260502164003 58 120 0.0 2.0 0.10 0.10 0.10 85 1010.3
20260502163503 58 105 0.0 2.0 0.08 0.08 0.08 83 1009.7
20260502163003 59 113 0.0 2.0 0.07 0.07 0.07 82 1009.7
20260502162503 59 133 0.0 2.0 0.06 0.06 0.06 81 1009.8
20260502162003 60 128 0.0 2.0 0.04 0.04 0.04 79 1009.8
20260502161503 61 99 0.0 1.0 0.04 0.04 0.04 78 1009.6
20260502161003 61 126 0.0 2.0 0.02 0.02 0.02 74 1009.9
20260502160503 61 153 1.0 2.0 0.01 0.01 0.01 72 1009.8
20260502151503 63 360 1.0 4.0 0.00 0.00 0.00 61 1009.8
20260502151004 63 342 1.0 3.0 0.00 0.00 0.00 61 1010.0
20260502150503 64 17 1.0 3.0 0.00 0.00 0.00 61 1010.1
20260502130503 67 177 1.0 4.0 0.00 0.00 0.00 50 1011.9
20260502130215 68 198 1.0 4.0 0.00 0.00 0.00 49 1012.1
20260502123503 66 159 1.0 4.0 0.00 0.00 0.00 51 1012.5
20260502123003 68 158 1.0 4.0 0.00 0.00 0.00 49 1012.6
20260502122503 69 190 1.0 4.0 0.00 0.00 0.00 48 1012.5
20260502122214 67 182 1.0 5.0 0.00 0.00 0.00 51 1012.6
20260502121503 68 176 1.0 5.0 0.00 0.00 0.00 50 1012.7
20260502121003 66 184 1.0 4.0 0.00 0.00 0.00 52 1012.6
20260502120503 68 187 2.0 4.0 0.00 0.00 0.00 51 1012.7
20260502115503 65 338 1.0 4.0 0.00 0.00 0.00 55 1012.9
20260502115003 65 355 1.0 4.0 0.00 0.00 0.00 56 1012.9
20260502114715 64 101 1.0 4.0 0.00 0.00 0.00 56 1012.9
20260502114213 64 154 1.0 4.0 0.00 0.00 0.00 55 1013.1
20260502113503 64 188 1.0 4.0 0.00 0.00 0.00 56 1013.3
20260502113003 64 212 1.0 4.0 0.00 0.00 0.00 57 1013.2
20260502112717 65 168 1.0 4.0 0.00 0.00 0.00 56 1013.3
20260502112004 65 166 1.0 4.0 0.00 0.00 0.00 54 1013.6
20260502111503 63 196 1.0 4.0 0.00 0.00 0.00 58 1013.4
20260502111216 63 195 1.0 4.0 0.00 0.00 0.00 58 1013.6
20260502110503 66 175 2.0 6.0 0.00 0.00 0.00 54 1013.6
20260502110003 64 172 2.0 6.0 0.00 0.00 0.00 54 1013.9
20260502105503 64 178 1.0 4.0 0.00 0.00 0.00 57 1013.9
20260502105003 62 352 1.0 3.0 0.00 0.00 0.00 58 1013.9
20260502104503 62 133 1.0 3.0 0.00 0.00 0.00 57 1013.9
20260502104003 64 170 1.0 2.0 0.00 0.00 0.00 54 1014.0
20260502103503 64 181 1.0 5.0 0.00 0.00 0.00 54 1014.1
20260502103214 64 181 1.0 5.0 0.00 0.00 0.00 56 1014.1
20260502102503 63 202 1.0 4.0 0.00 0.00 0.00 57 1014.1
20260502102215 63 202 1.0 4.0 0.00 0.00 0.00 58 1014.3
20260502101713 65 173 1.0 4.0 0.00 0.00 0.00 56 1014.3
20260502101003 64 167 1.0 3.0 0.00 0.00 0.00 56 1014.3
20260502100503 64 156 1.0 3.0 0.00 0.00 0.00 57 1014.2
20260502091503 58 82 1.0 4.0 0.00 0.00 0.00 66 1014.5
20260502091003 59 115 1.0 3.0 0.00 0.00 0.00 67 1014.6
20260502090503 58 122 1.0 3.0 0.00 0.00 0.00 69 1014.6
20260502071503 51 121 1.0 2.0 0.00 0.00 0.00 89 1015.4
20260502071003 51 116 1.0 2.0 0.00 0.00 0.00 91 1015.3
20260502070503 50 121 1.0 2.0 0.00 0.00 0.00 92 1015.2
20260502070003 50 125 1.0 2.0 0.00 0.00 0.00 93 1015.2
20260502065503 50 116 0.0 2.0 0.00 0.00 0.00 94 1015.1
20260502065003 49 105 0.0 2.0 0.00 0.00 0.00 95 1015.2
20260502064504 50 107 0.0 2.0 0.00 0.00 0.00 95 1015.4
20260502064004 49 106 1.0 2.0 0.00 0.00 0.00 95 1015.0
20260502063503 48 104 1.0 2.0 0.00 0.00 0.00 95 1015.5
20260502063003 48 102 1.0 2.0 0.00 0.00 0.00 95 1015.4
20260502062715 48 99 1.0 2.0 0.00 0.00 0.00 95 1015.6
20260502062003 47 101 1.0 2.0 0.00 0.00 0.00 95 1015.5
20260502061503 47 101 1.0 2.0 0.00 0.00 0.00 95 1015.4
20260502061213 47 103 1.0 2.0 0.00 0.00 0.00 95 1015.5
20260502060503 46 105 1.0 2.0 0.00 0.00 0.00 95 1015.6
20260502060003 46 105 1.0 2.0 0.00 0.00 0.00 95 1015.6
20260502055503 45 107 1.0 2.0 0.00 0.00 0.00 95 1015.6
20260502055215 45 105 1.0 2.0 0.00 0.00 0.00 95 1015.6
20260502054503 45 109 1.0 2.0 0.00 0.00 0.00 95 1015.7
20260502054004 44 111 1.0 2.0 0.00 0.00 0.00 95 1015.5
20260502053714 44 109 1.0 2.0 0.00 0.00 0.00 95 1015.5
20260502053003 44 106 1.0 2.0 0.00 0.00 0.00 94 1015.3
20260502052503 44 106 1.0 2.0 0.00 0.00 0.00 94 1015.4
20260502052003 43 105 1.0 2.0 0.00 0.00 0.00 94 1015.3
20260502051503 43 105 1.0 2.0 0.00 0.00 0.00 94 1015.3
20260502051214 43 104 1.0 2.0 0.00 0.00 0.00 94 1015.3
20260502050503 43 108 1.0 2.0 0.00 0.00 0.00 94 1015.3
20260502050003 43 108 1.0 2.0 0.00 0.00 0.00 94 1015.5
20260502045503 43 106 1.0 2.0 0.00 0.00 0.00 94 1015.3
20260502045003 42 97 1.0 2.0 0.00 0.00 0.00 93 1015.4
20260502044504 42 97 1.0 2.0 0.00 0.00 0.00 93 1015.4
20260502044003 42 96 1.0 2.0 0.00 0.00 0.00 93 1015.5
20260502043503 42 81 1.0 2.0 0.00 0.00 0.00 93 1015.4
20260502043003 43 83 1.0 2.0 0.00 0.00 0.00 93 1015.4
20260502042716 43 92 1.0 2.0 0.00 0.00 0.00 93 1015.6
20260502042004 42 96 1.0 2.0 0.00 0.00 0.00 93 1015.6
20260502041503 43 97 1.0 2.0 0.00 0.00 0.00 93 1015.6
20260502041003 43 103 1.0 2.0 0.00 0.00 0.00 93 1015.6
20260502040713 43 104 1.0 2.0 0.00 0.00 0.00 93 1015.6
20260502040216 43 105 1.0 2.0 0.00 0.00 0.00 93 1015.7
20260502035714 44 96 1.0 2.0 0.00 0.00 0.00 93 1015.9
20260502035003 44 104 1.0 2.0 0.00 0.00 0.00 93 1016.0
20260502034503 44 114 1.0 2.0 0.00 0.00 0.00 93 1015.9
20260502034003 44 110 1.0 2.0 0.00 0.00 0.00 93 1016.0
20260502033503 44 108 1.0 2.0 0.00 0.00 0.00 93 1015.7
20260502033003 44 102 1.0 2.0 0.00 0.00 0.00 93 1016.0
20260502032503 45 99 1.0 2.0 0.00 0.00 0.00 93 1016.0
20260502032003 45 102 1.0 2.0 0.00 0.00 0.00 93 1016.0
20260502031503 45 100 1.0 2.0 0.00 0.00 0.00 93 1015.9
20260502031003 45 100 1.0 2.0 0.00 0.00 0.00 93 1015.7
20260502030713 45 100 1.0 2.0 0.00 0.00 0.00 93 1015.8
20260502030003 45 103 1.0 2.0 0.00 0.00 0.00 93 1015.9
20260502025714 45 104 1.0 2.0 0.00 0.00 0.00 92 1015.8
20260502025217 45 100 1.0 2.0 0.00 0.00 0.00 92 1015.7
20260502024503 45 101 1.0 2.0 0.00 0.00 0.00 92 1015.8
20260502024213 45 103 1.0 2.0 0.00 0.00 0.00 92 1015.9
20260502023716 46 100 1.0 2.0 0.00 0.00 0.00 91 1015.8
20260502023214 45 99 1.0 2.0 0.00 0.00 0.00 91 1015.9
20260502022503 45 102 1.0 2.0 0.00 0.00 0.00 91 1015.8
20260502022215 45 102 1.0 2.0 0.00 0.00 0.00 90 1016.0
20260502021503 46 101 1.0 2.0 0.00 0.00 0.00 90 1016.2
20260502021003 46 102 1.0 2.0 0.00 0.00 0.00 90 1016.1
20260502020503 46 104 1.0 2.0 0.00 0.00 0.00 90 1016.2
20260502020004 47 109 1.0 2.0 0.00 0.00 0.00 90 1016.0
20260502015504 47 106 0.0 2.0 0.00 0.00 0.00 90 1016.1
20260502015003 47 88 0.0 2.0 0.00 0.00 0.00 90 1016.3
20260502014503 48 93 1.0 2.0 0.00 0.00 0.00 90 1016.2
20260502014003 47 97 0.0 2.0 0.00 0.00 0.00 90 1016.4
20260502013503 48 82 0.0 2.0 0.00 0.00 0.00 90 1016.3
20260502013003 48 90 0.0 2.0 0.00 0.00 0.00 90 1016.3
20260502012503 49 108 0.0 2.0 0.00 0.00 0.00 90 1016.4
20260502012216 49 115 1.0 2.0 0.00 0.00 0.00 90 1016.3
20260502011503 49 119 1.0 2.0 0.00 0.00 0.00 90 1016.3
20260502011003 49 120 1.0 2.0 0.00 0.00 0.00 90 1016.7
20260502010504 49 122 1.0 2.0 0.00 0.00 0.00 90 1016.6
20260502010003 50 125 1.0 2.0 0.00 0.00 0.00 90 1016.6
20260502005503 50 125 1.0 2.0 0.00 0.00 0.00 90 1016.9
20260502005003 50 124 1.0 2.0 0.00 0.00 0.00 89 1016.8
20260502004503 50 125 1.0 2.0 0.00 0.00 0.00 89 1016.9
20260502004003 50 124 1.0 2.0 0.00 0.00 0.00 89 1016.7
20260502003503 50 122 1.0 2.0 0.00 0.00 0.00 89 1016.9
20260502003003 50 121 1.0 2.0 0.00 0.00 0.00 89 1016.9
20260502002504 50 124 1.0 2.0 0.00 0.00 0.00 88 1017.0
20260502002003 50 130 1.0 2.0 0.00 0.00 0.00 88 1016.7
20260502001503 51 131 1.0 2.0 0.00 0.00 0.00 88 1016.8
20260502001217 51 132 1.0 2.0 0.00 0.00 0.00 88 1016.8
20260502000503 51 127 1.0 2.0 0.00 0.00 0.00 88 1016.8
20260502000003 51 127 1.0 2.0 0.00 0.00 0.00 88 1016.9
20260501235503 51 137 1.0 3.0 0.00 0.00 0.00 87 1016.8
20260501235003 51 135 1.0 3.0 0.00 0.00 0.00 87 1017.0
20260501234503 51 129 1.0 3.0 0.00 0.00 0.00 87 1016.9
20260501234003 51 127 1.0 2.0 0.00 0.00 0.00 86 1017.2
20260501233503 51 132 1.0 3.0 0.00 0.00 0.00 86 1017.0
20260501233003 52 143 1.0 3.0 0.00 0.00 0.00 85 1017.3
20260501232503 52 149 1.0 4.0 0.00 0.00 0.00 85 1017.1
20260501232003 52 147 1.0 4.0 0.00 0.00 0.00 84 1017.2
20260501231503 52 147 1.0 4.0 0.00 0.00 0.00 84 1017.4
20260501231003 52 142 1.0 3.0 0.00 0.00 0.00 84 1017.4
20260501230503 52 138 1.0 3.0 0.00 0.00 0.00 83 1017.5
20260501230008 52 147 1.0 4.0 0.00 0.00 0.00 83 1017.3
20260501225503 52 141 2.0 4.0 0.00 0.00 0.00 83 1017.3
20260501225003 52 141 1.0 3.0 0.00 0.00 0.00 83 1017.2
20260501224503 52 153 1.0 3.0 0.00 0.00 0.00 82 1017.2
20260501224003 52 147 1.0 3.0 0.00 0.00 0.00 82 1017.2
20260501223503 52 135 1.0 3.0 0.00 0.00 0.00 82 1017.2
20260501223003 53 147 1.0 3.0 0.00 0.00 0.00 81 1017.2
20260501222503 53 153 1.0 3.0 0.00 0.00 0.00 81 1017.1
20260501222003 53 144 1.0 3.0 0.00 0.00 0.00 81 1017.3
20260501221503 53 141 2.0 3.0 0.00 0.00 0.00 81 1017.2
20260501221003 53 137 2.0 3.0 0.00 0.00 0.00 80 1017.3
20260501220503 53 147 2.0 3.0 0.00 0.00 0.00 80 1017.1
20260501220215 53 151 2.0 3.0 0.00 0.00 0.00 80 1017.2
20260501215503 53 142 1.0 3.0 0.00 0.00 0.00 80 1017.1
20260501215003 53 143 2.0 3.0 0.00 0.00 0.00 80 1017.2
20260501214713 53 144 2.0 3.0 0.00 0.00 0.00 80 1017.1
20260501214003 53 142 1.0 3.0 0.00 0.00 0.00 80 1017.1
20260501213503 53 139 1.0 3.0 0.00 0.00 0.00 80 1017.0
20260501213003 54 147 1.0 3.0 0.00 0.00 0.00 80 1017.1
20260501212503 54 153 1.0 3.0 0.00 0.00 0.00 80 1017.1
20260501212003 54 152 1.0 3.0 0.00 0.00 0.00 80 1017.1
20260501211503 54 147 1.0 4.0 0.00 0.00 0.00 80 1017.1
20260501211003 54 144 1.0 4.0 0.00 0.00 0.00 80 1017.0
20260501210503 54 158 1.0 2.0 0.00 0.00 0.00 80 1017.1
20260501210003 54 159 1.0 3.0 0.00 0.00 0.00 81 1017.1
20260501205503 54 145 1.0 3.0 0.00 0.00 0.00 81 1017.2
20260501205003 55 143 1.0 3.0 0.00 0.00 0.00 81 1017.3
20260501204503 55 149 1.0 3.0 0.00 0.00 0.00 81 1017.4
20260501204003 55 155 1.0 3.0 0.00 0.00 0.00 81 1017.2
20260501203503 55 151 1.0 3.0 0.00 0.00 0.00 81 1017.0
20260501203003 55 147 1.0 3.0 0.00 0.00 0.00 81 1017.2
20260501202503 56 157 1.0 3.0 0.00 0.00 0.00 82 1017.1
20260501202214 56 151 1.0 3.0 0.00 0.00 0.00 82 1017.1
20260501201717 56 141 1.0 3.0 0.00 0.00 0.00 82 1017.2
20260501201003 56 136 1.0 3.0 0.00 0.00 0.00 81 1017.1
20260501200503 56 135 1.0 2.0 0.00 0.00 0.00 82 1017.0
20260501200003 56 139 1.0 3.0 0.00 0.00 0.00 82 1017.2
20260501195503 57 146 1.0 3.0 0.00 0.00 0.00 81 1017.2
20260501195003 57 158 1.0 2.0 0.00 0.00 0.00 81 1017.1
20260501194503 57 154 1.0 2.0 0.00 0.00 0.00 81 1017.2
20260501194003 57 150 1.0 3.0 0.00 0.00 0.00 82 1017.0
20260501193503 58 151 1.0 3.0 0.00 0.00 0.00 82 1017.0
20260501193003 58 153 1.0 2.0 0.00 0.00 0.00 82 1017.2
20260501192503 58 150 1.0 2.0 0.00 0.00 0.00 82 1017.0
20260501192003 58 141 1.0 2.0 0.00 0.00 0.00 82 1017.2
20260501191713 58 138 0.0 2.0 0.00 0.00 0.00 81 1017.0
20260501191003 58 135 0.0 2.0 0.00 0.00 0.00 81 1017.0
20260501190503 59 141 0.0 2.0 0.00 0.00 0.00 81 1017.0
20260501190003 59 149 1.0 2.0 0.00 0.00 0.00 80 1017.1
20260501185503 59 151 1.0 3.0 0.00 0.00 0.00 80 1016.9
20260501185003 59 154 1.0 4.0 0.00 0.00 0.00 80 1016.8